FW6293 Weather Reports


Display with metric or nautical units.
time (UTC)temp
F
wind
direction
speed
MPH
gust
MPH
rain 1hr
in
rain 24hr
in
rain mn
in
humidity
%
barometer
mb
20260504081514 36 295 0.0 0.0 0.00 0.00 0.00 84 1021.0
20260504050117 42 295 0.0 0.0 0.00 0.00 0.00 74 1021.0
20260504044550 42 295 0.0 0.0 0.00 0.00 0.00 74 1021.0
20260504043057 42 295 0.0 0.0 0.00 0.00 0.00 72 1021.0
20260504041548 42 295 0.0 0.0 0.00 0.00 0.00 73 1021.0
20260504040045 41 295 0.0 0.0 0.00 0.00 0.00 73 1021.0
20260504034550 41 295 0.0 0.0 0.00 0.00 0.00 72 1021.0
20260504033046 42 295 0.0 0.0 0.00 0.00 0.00 70 1021.0
20260504031602 43 295 0.0 0.0 0.00 0.00 0.00 70 1021.0
20260504030044 43 295 0.0 0.0 0.00 0.00 0.00 68 1021.0
20260504024544 44 295 0.0 0.0 0.00 0.00 0.00 67 1021.0
20260504023042 44 295 0.0 0.0 0.00 0.00 0.00 65 1021.0
20260504021541 45 295 0.0 0.0 0.00 0.00 0.00 64 1021.0
20260504020041 46 295 0.0 0.0 0.00 0.00 0.00 62 1021.0
20260504014541 46 295 0.0 0.0 0.00 0.00 0.00 62 1021.0
20260504013040 47 295 0.0 0.0 0.00 0.00 0.00 62 1021.0
20260504011544 48 295 0.0 2.0 0.00 0.00 0.00 59 1021.0
20260504010044 49 296 0.0 0.0 0.00 0.00 0.00 58 1021.0
20260504004539 50 296 0.0 3.0 0.00 0.00 0.00 57 1021.0
20260504003044 51 300 1.0 3.0 0.00 0.00 0.00 55 1021.0
20260504001549 52 300 1.0 4.0 0.00 0.00 0.00 54 1021.0
20260504000037 53 300 1.0 3.0 0.00 0.00 0.00 52 1021.0
20260503234537 55 301 3.0 5.0 0.00 0.00 0.00 46 1021.0
20260503233037 56 305 3.0 7.0 0.00 0.00 0.00 45 1021.0
20260503231546 57 298 7.0 11.0 0.00 0.00 0.00 42 1021.0
20260503230036 58 284 4.0 11.0 0.00 0.00 0.00 42 1021.0
20260503224535 58 330 4.0 16.0 0.00 0.00 0.00 40 1021.0
20260503223136 59 323 6.0 13.0 0.00 0.00 0.00 40 1021.0
20260503221534 59 338 8.0 13.0 0.00 0.00 0.00 38 1021.0
20260503220038 59 313 4.0 13.0 0.00 0.00 0.00 41 1021.0
20260503214540 59 309 8.0 15.0 0.00 0.00 0.00 41 1021.0
20260503213049 60 321 11.0 17.0 0.00 0.00 0.00 40 1021.0
20260503211533 58 321 7.0 17.0 0.00 0.00 0.00 41 1021.0
20260503210032 59 313 8.0 13.0 0.00 0.00 0.00 40 1021.0
20260503204549 59 317 7.0 13.0 0.00 0.00 0.00 41 1021.0
20260503203028 59 307 4.0 14.0 0.00 0.00 0.00 43 1021.0
20260503201527 58 340 4.0 11.0 0.00 0.00 0.00 41 1021.0
20260503200026 57 327 6.0 11.0 0.00 0.00 0.00 39 1021.0
20260503194525 58 290 5.0 11.0 0.00 0.00 0.00 38 1021.0
20260503193023 58 328 6.0 14.0 0.00 0.00 0.00 43 1021.0
20260503191520 56 315 8.0 16.0 0.00 0.00 0.00 43 1021.0
20260503190020 57 321 5.0 16.0 0.00 0.00 0.00 44 1021.0
20260503184519 56 321 6.0 18.0 0.00 0.00 0.00 42 1021.0
20260503183016 55 305 8.0 16.0 0.00 0.00 0.00 45 1021.0
20260503181516 56 313 10.0 16.0 0.00 0.00 0.00 47 1021.0
20260503180026 55 329 5.0 12.0 0.00 0.00 0.00 48 1021.0
20260503174520 55 329 5.0 14.0 0.00 0.00 0.00 45 1021.0
20260503173015 54 323 2.0 14.0 0.00 0.00 0.00 41 1021.0
20260503171517 54 51 4.0 12.0 0.00 0.00 0.00 40 1021.0